Terminal Aerodrome Forecast
Issued by NWS

Home | Current Version | Previous Version | Text Only | Print | Product List | Glossary Off
Versions: 1 2 3 4 5 6 7 8 9 10 11 12 13 14

000
FTUS42 KMHX 271121
TAFPGV
TAF
KPGV 271121Z 2712/2812 23005KT P6SM BKN110
     FM272100 26007KT P6SM VCTS BKN040CB
     FM280300 VRB03KT P6SM SCT060
      AMD LTD TO CLD VIS AND WIND=

USA.gov is the U.S. government's official web portal to all federal, state and local government web resources and services.